Wind_Speed
5 4 4 3 3 4 5 6 7 9 10 10 11 11 12 13 14 15 15 16 15 15 15 15 15 15 15 15 15 15 14 14 15 16 16 19 22 21 21 20 18 17 15 13 11 9 7 6 4 4 5 4 2 2 8 8 6 3 2 1 2 4 7 11 14 16 21 23 23 24 22 20 21 20 19 18 17 15 14 13 13 15 17 17 18 21 20 20
6 5 4 4 3 3 3 4 5 7 8 10 11 12 12 12 14 14 15 16 16 16 16 15 15 16 16 15 16 16 15 14 14 15 18 20 20 20 21 19 18 18 16 13 11 9 7 5 4 4 4 4 2 5 8 6 5 4 4 1 3 6 6 10 14 15 20 23 22 22 21 20 18 18 18 17 17 15 15 16 16 18 18 16 19 20 18 19
6 5 5 4 4 3 3 3 4 4 5 6 8 11 12 14 14 14 15 15 16 17 17 16 15 16 15 15 16 15 15 14 14 17 18 20 19 20 20 18 19 17 15 13 12 12 8 6 5 5 4 4 4 8 7 2 2 3 6 2 5 8 8 10 12 15 19 21 22 21 19 19 18 17 16 16 17 16 15 16 17 17 17 17 19 18 17 19
6 5 5 5 4 3 3 3 3 3 4 4 5 7 10 13 15 15 16 15 16 16 17 17 16 16 15 16 15 15 16 13 15 18 18 19 19 18 18 18 19 17 15 14 14 14 11 9 7 6 6 7 7 7 7 3 1 3 5 3 9 11 10 11 11 15 18 19 21 20 19 19 18 16 16 17 18 18 16 14 15 15 16 17 19 18 17 19
6 6 5 5 5 4 4 3 3 3 3 4 5 5 6 9 12 15 16 16 16 16 17 17 17 17 15 16 14 15 13 8 17 20 16 19 18 16 17 19 19 17 16 16 16 15 12 11 9 8 7 8 6 4 8 4 3 3 4 7 11 11 12 13 11 16 20 19 20 19 19 20 18 17 17 17 17 19 16 13 14 14 15 16 17 18 17 18
7 7 5 5 4 5 5 5 5 5 5 5 5 5 6 7 8 11 14 17 17 17 17 16 17 16 16 16 14 15 13 10 20 21 16 18 17 16 18 19 19 17 17 17 17 15 13 13 11 10 8 7 6 5 7 2 3 2 4 8 10 11 14 16 13 17 20 19 18 18 19 19 19 18 17 16 15 17 18 16 15 15 15 17 17 17 17 17
8 7 6 5 5 5 6 7 8 8 8 7 7 7 7 7 8 8 11 13 16 18 17 16 16 16 16 15 14 15 14 15 21 18 16 18 17 17 18 19 20 19 18 18 17 15 14 13 11 10 8 9 10 7 5 2 3 2 4 7 10 12 15 17 17 17 18 18 17 17 18 18 19 19 16 16 16 18 19 18 17 16 18 18 18 17 17 17
7 7 6 6 6 7 8 9 10 11 12 11 10 9 8 8 8 8 9 10 13 16 17 18 16 15 15 15 15 12 11 20 22 15 15 19 18 18 19 18 19 19 19 18 16 15 15 14 12 9 9 10 9 4 4 4 5 3 3 7 10 12 14 17 18 18 18 18 19 18 17 18 19 17 15 17 18 18 20 19 18 18 19 20 19 19 18 18
7 7 7 8 9 9 10 11 11 12 12 12 12 10 9 9 9 9 9 9 11 13 16 18 16 16 14 14 15 9 11 23 22 15 15 18 19 19 18 17 17 18 18 17 17 17 14 13 11 9 11 12 8 3 5 5 6 6 5 8 9 10 12 15 17 18 19 20 20 17 17 18 18 16 14 17 19 19 19 20 19 20 21 21 20 20 20 19
7 7 8 9 10 10 11 11 11 10 10 11 11 10 10 9 9 9 9 9 9 10 14 16 17 17 13 14 13 7 15 23 19 17 17 17 19 19 18 18 17 17 17 17 18 17 14 12 10 10 10 9 6 5 6 5 5 5 5 7 9 10 11 14 18 19 20 21 20 17 17 17 17 16 15 17 19 19 19 21 21 21 21 21 21 20 20 19
8 8 9 9 10 10 10 10 10 9 9 9 9 9 9 9 9 9 9 8 8 9 11 14 16 16 14 14 11 8 19 22 17 19 18 17 19 19 19 19 17 17 17 17 18 18 16 12 10 12 8 6 6 6 7 7 6 4 5 8 10 11 11 12 17 17 16 18 20 19 16 16 17 15 15 19 20 20 20 22 22 22 21 21 21 21 20 19
9 9 9 9 9 9 9 10 10 10 9 9 9 9 8 8 8 8 9 8 8 8 9 12 13 14 14 12 12 15 21 19 17 19 17 17 18 20 21 19 18 18 16 14 16 17 16 15 14 15 10 6 6 6 9 9 5 6 8 9 10 11 9 10 13 13 13 16 19 19 16 14 16 15 16 20 20 20 21 22 23 22 22 22 21 20 19 18
9 9 8 8 9 9 10 10 10 10 10 10 10 9 8 7 7 7 9 8 8 8 8 10 11 12 12 9 14 19 18 16 17 18 17 16 18 20 22 21 19 19 17 15 14 15 19 20 18 16 12 7 5 10 12 8 5 8 8 5 8 8 7 9 12 13 13 16 19 19 16 13 15 16 18 21 21 20 22 23 23 23 22 22 21 20 19 18
9 8 8 9 9 10 10 10 11 11 11 11 11 10 9 7 6 6 8 9 9 8 8 9 9 10 11 11 15 17 15 16 17 17 16 15 17 20 21 21 21 20 20 18 13 16 23 24 21 18 17 13 8 12 12 8 8 8 6 4 5 5 6 10 12 14 14 17 21 18 16 16 16 18 20 22 22 20 23 24 23 23 22 21 20 19 19 18
8 8 9 10 11 11 11 11 12 12 12 11 10 10 8 7 6 6 7 9 9 8 8 8 8 9 8 9 13 14 15 15 15 16 15 15 16 18 21 21 21 20 21 20 17 20 24 24 23 19 14 13 12 10 8 9 10 8 7 6 6 5 7 10 12 14 15 17 20 16 16 18 17 19 20 22 23 20 23 25 23 23 22 21 20 19 19 18
8 8 10 11 12 12 13 13 12 12 11 10 9 9 7 6 6 6 8 9 9 8 7 6 7 7 6 6 13 13 11 11 14 16 14 14 14 16 20 20 20 20 19 19 20 21 23 23 22 17 11 12 13 11 10 12 11 9 9 5 5 5 6 10 12 14 15 18 20 16 16 18 18 21 21 21 23 21 22 24 23 23 22 21 20 20 19 18
8 9 11 12 13 14 14 13 12 11 10 9 8 6 4 4 5 6 8 9 8 6 5 4 5 7 6 7 10 9 9 12 14 15 14 14 14 16 19 19 19 19 16 17 16 16 20 22 20 16 14 14 14 13 14 14 10 8 8 2 1 4 6 10 12 13 15 18 20 17 18 19 18 23 23 21 22 22 22 24 23 23 22 22 20 20 19 18
8 11 12 13 14 14 14 13 12 11 9 7 5 3 2 0 2 5 6 7 7 3 2 3 4 4 4 5 6 7 11 15 14 13 13 13 14 16 17 17 18 18 16 14 13 14 19 20 17 14 16 16 15 15 16 12 7 7 8 4 1 4 8 9 11 13 15 19 19 17 18 20 20 23 24 22 22 22 22 24 24 23 23 23 21 20 19 19
9 12 13 13 14 13 13 12 11 10 8 5 3 5 7 6 5 3 4 6 8 5 4 3 8 4 4 7 9 11 12 14 13 13 13 13 14 14 15 16 17 16 13 11 12 13 17 17 16 17 18 19 17 17 15 9 5 5 6 6 5 5 7 8 9 12 15 18 19 17 16 19 22 24 25 25 23 22 22 24 25 24 23 23 22 21 19 19
10 13 13 13 14 12 12 10 9 8 6 4 4 9 11 9 9 8 4 4 8 5 2 6 8 4 4 7 8 10 11 11 11 12 13 13 13 13 14 14 14 14 12 11 12 13 17 18 18 21 20 19 18 17 15 9 5 4 3 5 6 5 5 8 9 11 15 17 18 18 16 18 23 24 25 26 25 23 22 24 26 26 24 23 22 21 20 19
11 13 13 13 12 11 9 8 7 6 5 4 4 7 10 5 1 3 1 1 3 4 5 7 10 10 9 9 7 7 8 9 9 10 12 13 12 11 12 13 13 14 15 12 11 12 17 20 20 21 19 15 16 18 16 10 8 7 5 4 8 7 7 9 8 10 14 14 16 19 17 17 22 24 24 25 25 24 23 24 26 26 25 24 22 22 21 20
11 13 12 12 10 8 7 7 7 6 6 5 5 7 7 2 6 5 7 4 5 5 3 6 10 12 10 10 9 8 9 9 10 11 12 12 12 12 11 13 14 14 16 14 13 14 18 22 20 19 19 13 10 13 13 11 11 9 6 5 10 10 8 8 8 10 13 11 12 18 17 16 21 23 24 25 23 22 22 23 24 25 25 25 23 22 22 21
11 12 10 9 8 7 8 8 9 9 9 7 6 7 3 2 7 11 12 7 3 4 0 4 5 6 5 5 8 11 10 10 11 11 11 13 13 13 11 13 15 14 16 17 16 16 18 21 19 17 18 15 11 11 10 11 13 11 7 6 7 10 11 9 9 12 12 8 10 17 17 14 17 18 21 23 22 21 22 23 24 24 24 24 24 23 22 22
11 10 8 7 7 9 9 10 10 10 10 8 8 7 2 3 7 12 11 5 2 2 2 6 7 6 5 5 8 12 10 10 11 11 11 14 13 13 12 13 15 15 16 18 17 16 16 17 18 18 17 14 14 14 12 12 14 13 10 7 7 13 13 8 9 13 11 7 9 16 16 14 15 16 17 21 21 20 22 24 24 24 24 23 24 24 23 23
9 7 6 7 8 10 10 11 11 10 11 10 9 8 6 6 7 13 11 4 6 7 4 5 6 5 6 9 12 12 8 8 9 12 10 13 12 11 11 13 15 16 16 17 18 18 16 13 15 18 18 14 15 16 15 14 14 15 13 9 6 10 10 4 9 16 14 8 9 15 13 10 16 17 17 20 20 20 21 23 25 24 24 24 24 24 23 23
7 5 7 7 9 9 10 11 9 11 12 9 6 5 6 10 10 13 8 6 7 7 5 6 4 5 5 10 12 7 9 9 9 11 10 13 12 9 10 13 15 14 14 17 17 17 18 15 13 13 13 15 17 17 15 14 16 14 10 10 6 6 7 4 9 16 12 6 8 14 9 6 15 19 18 19 21 22 23 24 25 25 25 25 26 25 23 24
4 6 7 7 8 7 9 9 7 10 9 6 3 5 8 12 9 7 1 5 8 5 4 5 3 6 6 10 12 6 9 12 10 9 9 13 12 9 11 13 14 13 12 16 18 18 17 12 12 14 12 14 17 18 13 12 16 11 2 5 6 7 8 6 9 11 6 2 6 13 11 5 12 18 18 19 21 23 26 26 26 26 26 25 26 25 24 24
3 6 7 7 7 7 8 7 6 7 3 2 3 6 8 10 5 2 5 1 8 5 3 3 3 6 5 10 13 5 5 10 10 8 9 12 11 9 11 11 14 12 11 17 16 15 15 10 11 16 16 16 17 18 14 10 14 11 2 4 6 6 7 8 8 5 3 4 5 11 12 5 5 12 17 20 22 25 27 28 27 27 27 26 26 25 25 24
4 7 6 6 6 6 6 6 5 5 3 2 4 7 8 7 1 3 6 1 7 4 4 4 4 6 7 11 11 6 6 7 7 9 9 10 12 13 10 9 13 12 11 18 16 10 12 13 12 14 17 18 15 16 16 13 14 12 6 7 8 6 6 7 6 2 2 6 5 9 15 9 2 8 19 22 24 27 29 30 29 27 27 27 26 26 26 24
6 7 6 6 5 6 6 6 6 6 6 6 7 9 9 5 2 7 5 4 6 6 6 5 5 8 10 12 10 8 10 7 4 9 9 7 12 16 11 8 12 13 10 17 20 10 6 10 12 12 14 15 13 15 18 17 15 11 8 8 10 9 7 7 6 3 3 7 7 8 15 15 6 10 22 23 21 25 28 31 32 29 28 27 27 26 26 26
7 8 6 6 5 6 6 7 8 8 8 8 7 6 4 3 9 8 2 6 4 5 6 4 6 8 10 10 9 9 11 9 6 10 9 8 11 13 10 9 11 12 11 15 21 15 7 9 13 14 14 12 11 13 16 16 15 13 10 10 10 10 9 8 7 7 5 6 8 9 14 17 10 10 17 16 14 19 25 30 33 32 31 29 28 26 26 26
8 9 7 6 5 5 6 8 7 7 8 6 5 4 2 7 8 1 6 3 3 3 3 6 8 8 9 8 8 9 10 10 9 11 11 11 12 11 11 13 13 13 14 14 17 16 12 12 12 13 16 15 11 11 13 14 15 15 14 14 12 9 8 8 7 8 8 6 7 9 11 12 9 7 10 11 14 18 22 25 29 33 32 31 30 28 27 27
9 10 7 6 5 5 6 7 6 6 7 4 5 4 6 9 2 5 4 0 2 3 2 5 7 7 7 8 8 9 9 8 10 12 11 11 12 12 13 12 12 14 13 12 16 17 16 14 14 13 15 17 16 15 14 13 16 19 18 17 14 9 7 7 7 7 8 8 8 8 7 7 7 7 5 8 11 14 19 21 25 30 31 29 30 30 28 28
10 11 8 7 6 5 6 7 6 6 5 4 3 3 9 6 4 4 3 6 5 3 3 4 6 6 7 9 8 9 8 6 9 11 11 12 12 12 13 9 9 12 11 11 16 17 14 15 19 20 16 17 20 21 17 11 13 20 20 18 17 14 11 7 5 6 6 7 8 7 5 6 4 10 7 7 8 9 15 20 23 28 30 29 30 30 30 28
11 11 9 8 7 6 6 6 6 5 4 5 5 8 8 3 5 3 4 6 3 2 4 4 6 8 8 7 7 10 10 6 8 11 10 12 13 11 12 10 10 12 11 10 13 14 14 12 15 19 17 15 19 22 19 13 12 17 19 20 20 19 16 11 8 8 7 7 6 7 5 2 4 9 10 11 10 8 10 15 20 26 31 30 29 30 30 29
11 11 9 8 7 6 5 5 5 3 4 5 8 7 1 4 5 6 5 2 2 1 4 5 7 9 8 6 6 10 11 6 8 12 10 11 12 9 9 10 9 11 12 9 8 11 14 10 9 14 13 13 16 19 20 17 12 12 18 23 20 16 16 15 13 12 11 8 5 8 7 2 3 6 9 11 12 12 11 13 17 26 33 32 30 31 31 30
13 12 8 7 8 7 5 5 4 3 4 2 6 4 4 3 3 5 3 2 2 1 4 5 6 7 6 7 7 10 10 6 8 13 10 8 9 6 6 7 5 7 10 10 9 9 12 10 10 13 12 12 14 16 20 20 16 12 15 20 19 15 15 14 11 10 11 9 6 10 11 5 4 7 8 10 11 15 17 15 15 23 32 32 30 32 32 31
14 12 7 7 8 7 5 5 4 3 2 3 5 2 2 2 4 3 2 1 0 2 6 5 5 5 6 6 8 10 10 8 9 11 9 9 9 6 5 7 5 6 8 11 11 8 11 10 10 12 13 13 14 16 19 21 22 19 13 12 17 17 16 14 11 8 7 7 7 9 11 10 12 13 11 13 13 15 18 17 14 19 28 30 30 31 32 31
13 9 7 10 9 6 5 5 4 2 2 6 5 2 1 2 4 2 2 1 1 3 6 5 3 4 4 3 6 9 8 7 9 9 9 10 9 7 6 7 6 4 7 11 10 5 9 12 6 9 11 13 15 18 20 21 23 23 16 11 15 18 15 15 16 13 9 7 6 8 9 5 6 11 13 14 15 15 17 17 14 15 22 29 31 32 31 28
10 7 9 13 9 6 7 5 3 5 6 6 3 1 1 1 2 1 1 1 2 3 5 3 4 4 3 3 6 8 7 6 8 8 8 8 7 7 5 6 4 3 4 9 11 8 10 15 10 6 8 11 15 18 20 19 20 23 20 14 14 16 15 13 16 18 15 10 6 6 7 1 5 6 11 13 14 14 16 16 14 13 18 24 29 32 31 27
9 6 11 15 12 8 7 4 5 7 7 4 2 0 2 1 1 1 1 1 1 3 3 1 3 4 5 5 4 6 6 5 7 8 8 9 6 4 6 5 3 3 5 8 10 10 11 14 13 10 10 13 16 18 19 18 17 19 21 21 18 16 15 12 12 15 17 14 10 9 6 3 5 6 9 11 11 11 12 14 15 15 16 20 24 28 30 28
9 8 11 13 12 8 7 5 6 6 4 3 3 1 2 2 1 1 1 1 1 1 1 1 1 2 4 4 4 5 6 5 6 7 7 7 4 3 5 6 3 3 6 8 8 9 11 12 13 14 12 10 12 16 19 18 15 15 19 22 21 18 16 14 12 11 14 15 15 15 10 2 4 5 6 7 8 10 13 15 16 17 16 19 23 25 29 30
7 8 10 14 13 8 7 6 6 5 2 2 3 1 1 1 1 1 1 2 2 1 1 0 1 2 2 3 4 5 5 4 3 4 5 6 4 3 5 4 3 3 5 7 4 6 11 12 13 15 11 7 7 11 14 15 13 15 17 19 21 21 18 17 15 12 14 15 15 15 9 4 7 9 7 6 7 11 15 15 16 18 18 20 22 25 27 29
5 5 7 13 12 8 7 7 6 5 2 2 4 3 2 2 1 1 2 1 1 1 1 1 0 1 2 3 4 3 4 5 3 3 4 5 4 3 3 3 3 2 5 5 0 2 8 10 12 14 11 9 10 11 12 16 17 17 17 16 19 21 19 18 18 15 16 16 15 15 8 4 8 9 6 6 6 7 12 14 15 18 19 18 19 21 23 24
6 5 3 6 7 8 7 7 6 5 4 4 4 3 3 2 2 1 1 1 0 1 1 1 0 1 2 3 4 3 4 5 5 4 4 3 2 2 1 1 1 1 4 5 2 3 6 7 10 12 11 9 8 7 8 13 16 19 18 17 20 21 19 19 19 19 18 14 13 16 8 4 3 5 4 5 5 5 7 12 16 17 16 14 14 16 20 21
5 7 6 5 7 8 8 6 4 4 5 6 4 3 3 2 1 3 2 0 1 0 1 1 1 2 2 3 4 5 5 5 4 5 5 4 3 1 1 1 1 2 5 5 4 4 7 7 9 11 13 9 6 7 9 9 14 20 21 20 21 20 19 18 18 18 16 13 14 17 10 3 3 6 6 6 6 7 8 10 13 15 14 12 12 15 18 19
6 7 7 7 8 8 8 7 5 3 5 6 4 4 3 1 2 3 1 1 1 1 1 1 1 2 3 4 5 5 5 5 4 6 6 6 5 3 3 1 2 5 4 3 3 5 7 10 9 9 12 10 6 7 10 11 14 17 18 19 19 17 17 20 22 19 14 14 14 11 8 8 8 7 9 10 8 7 8 9 10 12 14 13 10 10 13 16
7 6 6 7 7 6 6 8 7 4 4 5 4 4 4 3 2 1 1 1 0 1 2 1 1 1 2 3 5 5 5 6 5 6 6 5 6 6 5 3 3 4 3 3 4 4 7 10 10 8 9 9 8 9 10 10 12 13 12 14 16 17 18 19 21 20 17 17 14 9 8 8 7 8 10 10 7 7 7 7 7 10 15 15 12 9 9 12
7 5 6 8 7 4 4 6 6 5 5 4 4 4 4 3 2 2 1 1 1 2 2 1 1 1 1 2 4 4 4 5 5 5 5 4 5 7 7 7 7 5 4 5 5 4 7 9 8 8 8 8 9 9 10 11 11 12 13 12 12 16 19 18 18 18 18 17 14 12 11 8 8 12 11 8 7 8 9 9 8 10 15 16 15 14 12 12
10 9 8 8 7 6 5 6 6 5 6 6 5 4 3 2 2 2 2 1 2 1 2 2 2 2 0 1 3 3 3 2 1 2 4 4 4 5 6 6 7 7 7 6 5 4 6 7 7 9 11 10 8 7 9 11 11 12 14 13 11 13 16 16 15 14 13 13 13 12 12 11 12 12 10 11 11 12 14 13 9 9 12 14 15 15 15 15
14 13 11 9 7 7 7 7 7 7 6 6 5 5 4 3 2 1 1 2 1 0 1 2 3 3 2 1 3 3 3 1 1 1 3 3 2 2 3 3 5 8 8 7 7 6 7 7 7 9 12 12 10 8 9 9 12 13 10 6 6 8 10 10 8 7 9 9 9 10 10 10 12 9 6 8 9 9 11 11 9 9 10 12 13 13 15 18
14 13 12 10 7 7 8 8 7 8 6 4 4 4 3 3 2 2 2 1 1 3 3 2 3 4 3 3 5 4 3 3 2 2 3 4 3 3 4 4 4 6 6 6 7 7 8 8 8 9 11 12 12 12 9 9 13 11 3 1 2 3 4 5 2 3 3 4 5 7 8 7 8 9 7 7 6 4 6 8 8 9 10 12 12 12 15 18
Wind_Direction
4 359 350 334 306 287 269 256 249 245 245 246 245 245 246 246 246 244 242 240 239 239 239 239 238 235 232 230 229 226 223 222 222 221 219 221 222 221 223 223 223 225 227 228 230 234 240 250 255 270 280 275 319 246 245 271 282 267 218 312 267 176 154 156 152 155 150 150 158 153 153 147 141 148 144 138 134 134 131 127 126 124 140 156 161 158 159 164
5 1 355 349 338 321 296 280 264 253 249 246 245 245 245 245 246 246 245 244 242 240 238 237 237 236 234 231 230 229 226 223 222 221 221 223 222 220 221 221 222 224 225 224 223 225 222 223 240 254 261 250 252 267 262 265 279 252 203 200 191 171 134 146 153 154 153 152 153 149 148 142 140 146 142 138 134 135 130 127 132 140 151 154 153 157 161 162
3 358 352 348 346 338 327 310 292 281 269 258 251 246 245 244 244 246 246 246 245 243 240 237 235 235 234 232 230 231 230 226 226 223 221 225 223 220 220 220 221 221 220 216 217 217 203 197 215 224 241 233 221 264 270 246 304 210 180 166 159 159 123 130 145 153 156 153 149 144 145 142 140 144 140 137 133 131 133 137 143 150 153 147 151 159 159 158
358 354 345 344 342 340 338 328 318 308 295 286 272 258 249 245 243 244 244 246 247 245 244 240 237 234 231 233 229 230 231 232 236 224 217 225 224 220 217 218 219 217 215 214 218 214 198 193 206 208 219 237 230 258 273 232 242 182 165 139 148 155 140 133 144 158 156 151 149 145 146 144 141 143 140 137 135 134 139 147 148 150 150 146 153 159 158 157
352 350 346 342 337 340 340 334 329 317 310 300 289 279 265 252 247 244 242 244 246 246 246 243 240 236 230 229 226 229 225 227 240 226 214 224 224 221 216 215 216 212 210 212 216 212 199 192 201 211 218 246 239 248 279 253 170 165 134 134 146 152 147 138 142 157 155 153 152 146 145 143 140 142 139 138 140 138 140 148 148 149 149 146 152 158 159 156
350 352 352 341 335 336 333 331 326 317 312 300 294 287 276 266 255 248 244 242 243 246 246 244 243 239 233 227 223 225 210 211 239 228 216 220 219 220 215 212 213 208 206 207 211 209 201 193 197 216 230 260 255 242 281 287 152 155 124 147 154 154 151 142 144 155 154 150 150 146 144 141 140 140 136 136 142 139 139 148 149 149 148 146 152 156 156 154
352 353 351 342 334 327 323 321 316 311 307 299 295 287 280 276 265 257 250 244 242 242 244 245 243 240 236 228 222 221 212 225 240 229 217 217 213 216 214 211 209 204 203 203 206 203 201 195 195 215 230 253 256 250 293 314 209 172 136 167 165 160 159 154 154 155 150 145 149 152 146 144 145 141 134 135 141 142 143 148 147 146 146 147 152 155 156 155
355 351 344 336 326 320 315 312 310 307 304 299 294 286 280 276 271 266 258 249 244 241 243 243 242 241 236 230 224 218 222 234 236 228 220 215 210 213 213 212 207 203 201 200 201 199 200 195 193 218 229 238 251 284 321 279 248 237 180 189 174 163 163 164 160 152 151 151 156 159 148 147 149 143 139 138 140 143 143 145 145 145 146 149 154 156 156 156
355 346 337 328 320 315 311 309 307 304 302 300 296 288 280 272 269 267 262 258 250 243 242 240 241 240 234 231 221 205 230 235 232 229 224 215 211 210 210 211 207 204 198 196 197 194 198 194 191 219 229 231 238 282 296 264 254 258 219 189 172 164 165 164 158 158 163 156 151 155 151 150 151 146 143 141 142 144 143 142 145 147 148 151 156 157 158 159
352 341 332 325 319 315 313 312 310 308 306 302 298 292 283 272 265 263 261 261 255 248 244 240 240 237 234 229 210 198 240 238 233 227 221 218 213 207 207 207 205 203 196 195 196 190 190 187 191 216 229 242 246 250 260 258 257 250 210 179 162 167 180 168 161 167 168 153 147 154 153 150 152 150 148 145 146 147 144 144 147 149 150 152 158 160 159 161
349 339 332 327 323 321 320 320 317 316 314 307 305 298 290 278 265 258 255 256 254 251 244 240 240 235 235 226 197 214 242 236 233 226 219 219 213 207 206 204 203 199 192 193 196 190 184 182 199 213 222 246 246 257 259 253 249 217 187 182 167 170 183 170 166 169 162 151 150 155 153 152 155 156 154 150 150 150 147 149 150 150 151 155 162 162 159 163
347 341 339 334 331 330 327 325 322 320 318 314 310 303 300 289 268 252 246 247 247 248 245 242 240 233 232 224 202 222 236 232 231 225 217 218 211 207 205 201 202 196 186 192 197 191 188 193 203 206 207 217 232 259 250 245 236 201 201 190 171 174 172 160 167 168 159 152 149 150 149 154 158 156 156 153 151 151 150 151 152 153 155 160 165 162 160 167
347 346 346 341 337 334 329 327 324 321 318 314 310 302 300 292 276 254 238 236 239 241 241 239 239 234 224 217 218 226 234 233 231 224 218 218 211 208 206 199 200 195 184 188 198 200 199 198 197 204 208 197 241 253 232 234 233 211 224 201 153 166 169 160 167 164 159 159 156 152 148 157 165 159 157 154 153 153 152 153 154 157 159 163 167 163 164 169
348 350 348 342 339 336 332 330 326 324 319 314 308 300 292 283 278 256 232 227 231 230 235 234 236 230 210 215 227 227 230 230 230 227 220 217 212 208 207 202 200 198 191 184 194 212 207 199 192 202 210 195 219 246 227 231 239 216 232 217 156 168 172 168 171 165 163 163 163 159 152 159 165 162 160 158 157 157 155 156 157 160 162 166 168 164 167 169
350 351 347 343 341 338 335 333 330 327 321 315 308 300 289 273 262 245 225 222 223 224 229 226 229 224 205 230 240 228 227 228 228 227 220 216 212 208 207 206 202 203 201 191 198 211 204 200 196 198 211 210 218 238 231 229 232 228 230 202 175 190 175 175 177 166 169 169 163 162 161 164 166 166 165 160 158 159 159 158 160 164 164 167 167 165 170 170
350 351 347 344 343 341 338 336 333 331 326 319 311 301 286 263 239 225 218 214 217 223 222 220 227 200 159 223 235 226 219 217 224 224 218 212 205 205 206 206 206 206 209 208 212 211 199 197 199 199 219 232 231 234 240 230 216 229 240 210 185 198 170 178 182 170 173 173 164 158 158 167 173 170 166 163 161 161 163 162 163 166 166 167 167 166 172 172
350 350 347 345 344 343 340 338 337 335 329 324 316 307 290 252 223 219 209 206 213 215 218 220 207 181 174 221 228 221 202 201 216 216 212 209 200 203 203 203 207 205 208 216 220 213 201 197 198 209 223 226 229 228 237 235 217 234 246 230 202 207 188 185 186 182 178 174 171 162 158 168 175 171 168 167 165 163 166 166 166 169 167 168 168 168 174 174
349 350 348 346 346 344 341 339 339 336 332 329 325 336 348 219 218 219 203 205 195 145 344 240 156 155 209 216 194 190 198 204 211 208 207 206 202 204 200 199 205 204 207 216 219 209 203 201 202 222 227 220 222 222 231 240 234 249 243 229 264 216 210 201 193 193 181 174 178 177 171 174 176 173 171 171 170 168 170 170 169 170 171 170 168 171 176 176
350 350 347 346 346 345 343 340 340 339 337 344 19 73 67 57 31 332 234 197 165 106 3 189 144 136 183 168 171 186 201 207 202 200 202 200 201 201 196 198 201 199 202 212 216 205 200 203 210 220 223 220 220 220 230 250 276 263 229 212 215 206 206 205 200 198 187 179 182 184 177 178 180 177 174 175 174 173 173 173 172 171 175 174 169 172 178 177
350 348 347 347 346 346 345 342 346 347 353 25 100 92 56 30 14 351 300 191 173 174 210 180 160 158 165 162 182 197 201 198 192 198 199 194 195 192 195 198 194 193 194 204 213 204 200 207 215 217 220 223 223 226 232 247 279 261 220 210 206 202 197 193 193 193 189 185 187 188 178 179 185 181 179 180 176 175 176 176 176 175 176 176 170 176 181 176
349 347 347 348 349 353 354 356 5 8 29 53 136 97 41 9 41 13 347 334 284 225 201 209 188 176 183 185 184 184 183 176 183 203 198 190 187 182 195 192 186 198 197 201 209 201 206 215 220 219 220 227 231 234 234 239 255 249 253 232 189 189 196 187 187 190 185 185 193 191 181 179 184 182 183 185 180 177 179 178 181 180 177 175 172 181 184 174
347 348 348 353 360 10 18 31 38 45 60 71 121 83 26 254 170 129 113 94 308 286 220 211 188 182 193 194 184 166 166 173 188 206 194 183 178 175 199 196 190 204 199 198 204 199 211 219 222 222 220 229 238 233 231 234 242 243 245 207 174 177 187 178 182 193 187 185 197 193 185 179 182 188 189 186 182 179 182 181 182 185 182 176 174 183 184 175
349 349 353 9 24 42 51 59 61 66 71 76 97 73 354 227 129 118 100 91 267 302 62 170 165 184 196 198 192 165 165 185 190 204 198 179 173 176 200 203 197 205 200 200 204 201 215 220 221 223 219 227 236 229 231 231 236 245 235 211 198 197 195 185 181 189 186 190 200 192 192 184 175 189 194 186 182 182 188 186 182 189 189 181 178 184 184 179
351 353 13 38 56 65 66 72 71 74 76 73 78 80 117 126 122 130 93 61 201 88 134 166 135 156 189 187 162 142 160 194 190 205 199 170 175 191 201 201 200 208 206 204 208 212 222 221 220 223 217 222 234 232 237 236 236 244 232 222 225 204 193 190 185 183 183 198 193 177 186 197 182 184 189 186 187 187 191 189 184 189 192 186 184 188 187 183
353 9 50 65 72 75 77 78 73 77 78 73 67 64 93 100 125 133 105 115 148 82 88 139 130 176 205 174 142 129 175 206 192 204 191 160 180 206 202 201 203 210 209 205 211 221 225 219 217 220 217 226 239 235 236 237 238 243 232 222 228 200 186 188 180 177 180 196 188 170 175 201 198 195 192 190 192 189 188 190 187 187 192 190 187 192 191 187
1 46 80 79 79 82 82 80 80 79 61 49 56 57 99 115 127 123 111 172 145 81 99 110 113 174 174 163 147 137 188 183 172 196 188 165 184 204 196 202 207 211 213 205 212 226 225 217 210 210 215 229 237 235 234 233 234 247 237 211 215 212 210 222 181 176 181 185 180 187 193 190 197 206 208 199 195 193 192 193 189 188 193 193 191 193 191 190
23 87 94 88 87 86 83 83 91 80 43 7 79 96 120 134 140 112 50 192 128 93 144 115 109 150 140 167 165 164 184 171 166 191 195 175 180 199 193 196 207 214 211 202 212 226 220 207 206 213 226 232 231 229 227 225 228 244 277 205 224 232 231 229 193 179 180 167 164 194 213 207 198 208 211 204 198 197 198 196 191 191 195 195 196 193 187 193
77 110 103 98 95 89 87 88 84 78 50 259 116 100 134 155 158 36 318 202 102 91 141 136 195 174 155 171 172 182 183 177 183 184 187 178 172 192 200 198 208 212 202 199 207 213 210 212 220 222 229 232 230 226 223 225 230 235 273 259 254 244 232 227 210 184 179 207 178 191 208 221 213 204 204 206 204 202 202 199 195 195 195 194 199 195 187 192
129 128 114 108 102 95 89 83 70 71 95 126 100 113 143 158 148 291 274 92 91 106 114 102 146 151 155 168 175 194 181 190 203 174 181 195 178 183 203 206 205 205 201 208 212 199 204 223 230 224 225 229 232 229 223 225 232 237 251 256 254 250 234 227 231 246 238 232 213 191 196 201 213 190 195 202 205 205 205 201 197 197 195 193 199 197 187 191
152 147 130 120 111 104 94 86 80 80 93 96 101 124 144 146 242 264 255 89 88 112 114 102 124 144 161 167 174 193 183 181 179 162 177 205 182 180 192 193 197 203 201 216 227 227 208 216 220 221 223 226 231 232 227 225 232 245 258 248 238 237 236 233 230 224 246 247 238 214 200 200 202 184 192 198 205 207 204 198 196 198 196 192 196 196 188 191
166 163 146 139 124 111 105 98 92 89 98 105 109 126 156 222 254 265 64 92 115 115 131 152 145 161 175 171 169 179 183 179 169 172 176 178 180 186 196 192 195 206 207 217 228 232 226 224 225 223 221 223 233 234 227 225 233 243 246 240 235 230 230 238 227 213 237 242 225 214 200 204 219 214 203 200 205 209 202 200 200 198 194 192 194 192 187 191
176 173 160 154 137 126 121 106 102 100 97 100 95 90 267 265 265 307 79 130 184 128 165 166 152 180 196 190 179 169 177 183 178 182 180 177 184 190 197 195 190 201 209 210 215 220 224 229 227 223 222 220 224 227 222 222 229 233 234 233 235 229 223 235 228 220 242 246 221 209 200 207 219 222 214 193 189 202 202 203 203 197 195 194 193 189 187 191
183 179 173 168 155 141 130 115 118 107 89 77 65 58 273 271 334 64 68 76 116 102 148 161 164 189 200 201 190 171 170 175 181 189 187 188 194 193 197 204 204 210 218 212 207 213 220 223 218 218 221 217 214 218 218 221 223 223 225 228 229 228 228 238 232 229 242 240 224 208 213 230 186 158 193 186 179 196 199 202 202 198 198 197 194 188 187 192
184 183 182 180 170 148 134 128 122 104 79 44 27 309 275 286 64 81 60 61 72 101 128 163 177 180 200 203 185 176 175 166 183 195 192 196 203 199 199 210 211 214 233 231 213 209 214 222 216 212 214 212 212 218 224 234 230 221 222 229 231 230 237 247 239 244 259 252 234 206 219 262 176 144 155 161 164 190 192 193 199 201 201 201 197 190 188 194
184 187 189 189 184 161 149 141 125 111 81 40 336 277 275 347 48 39 50 69 74 130 140 180 189 184 201 199 176 190 202 195 187 193 194 199 203 201 202 209 207 214 237 238 216 212 226 233 206 198 207 209 209 217 224 239 241 223 220 230 232 232 240 256 261 262 271 267 244 209 217 300 107 138 138 140 161 186 192 193 198 200 200 200 198 191 188 194
182 188 196 200 195 177 164 149 134 124 87 35 314 289 344 44 25 21 39 41 339 116 160 186 193 197 193 176 178 192 201 214 192 191 198 196 193 192 195 193 196 217 231 232 216 214 232 236 173 178 206 211 211 215 215 224 236 219 215 226 232 234 239 251 263 262 259 257 214 198 226 313 92 162 159 153 166 170 180 197 200 198 195 193 194 190 188 195
181 186 198 209 204 191 175 156 147 126 93 24 304 329 46 57 29 22 26 347 341 183 211 203 195 220 207 176 184 186 193 213 194 191 199 193 179 166 178 184 200 230 231 247 256 235 240 239 170 178 213 211 210 216 212 221 233 223 217 224 228 234 237 244 265 263 252 254 215 204 224 222 202 210 179 168 172 165 174 193 202 198 194 192 193 190 189 197
184 185 200 221 212 197 180 164 157 128 100 297 290 320 354 31 53 28 16 352 287 234 259 245 188 226 236 183 173 178 190 205 198 193 193 185 170 155 191 202 209 233 227 246 262 242 243 242 166 176 220 213 204 214 213 218 228 234 244 235 222 226 229 226 239 254 252 251 238 229 232 215 211 216 192 180 186 173 174 188 197 196 196 197 196 194 195 199
183 180 211 236 227 206 190 175 177 179 238 281 279 190 197 44 60 31 23 27 248 273 287 275 183 214 242 179 172 178 180 194 203 194 183 185 170 154 207 212 189 215 222 230 245 227 236 251 203 177 212 204 195 209 215 212 217 230 251 255 231 231 234 229 232 246 259 262 261 256 250 227 193 196 186 186 194 187 182 188 194 193 198 201 199 196 198 199
174 174 220 248 250 214 199 188 207 239 248 264 275 172 176 59 60 41 28 16 263 297 306 272 216 216 189 166 182 177 175 202 209 186 169 187 167 137 183 208 186 209 202 212 235 235 232 247 243 183 181 195 199 207 214 212 209 215 228 236 231 228 233 238 238 237 244 256 268 263 252 133 96 156 174 179 185 190 192 192 194 196 198 203 202 199 197 199
174 196 229 256 264 227 209 224 237 250 253 233 202 184 206 195 41 32 18 344 298 316 336 311 227 211 180 183 184 171 180 195 191 177 172 193 194 143 161 181 186 212 195 198 219 226 227 238 237 211 196 211 216 210 211 216 215 213 218 224 229 229 225 233 240 234 238 246 250 259 262 120 122 155 169 181 185 190 198 198 198 198 194 198 202 202 200 202
173 211 231 254 260 230 215 247 246 248 257 192 149 107 165 182 294 306 248 283 280 277 318 340 253 211 195 197 184 185 198 182 171 182 184 184 176 123 161 182 192 200 212 217 213 218 234 246 245 233 223 219 215 206 206 214 223 224 221 222 228 233 228 230 238 233 236 241 241 249 260 220 186 184 177 194 192 194 204 202 201 203 200 197 197 202 205 206
174 233 252 259 258 229 216 246 242 226 236 170 164 165 145 164 285 302 263 266 263 266 288 273 231 221 210 206 205 207 208 189 172 187 179 156 137 146 176 186 184 185 238 252 233 222 233 241 248 247 245 235 201 191 202 215 224 232 228 220 223 230 231 235 245 254 253 245 236 241 246 218 202 197 200 217 199 199 205 197 191 192 192 195 195 200 205 207
211 242 263 261 246 205 212 251 245 214 193 170 193 199 171 161 161 71 32 305 216 357 299 213 264 225 189 209 233 228 209 206 207 196 176 155 149 178 181 179 197 229 278 276 273 240 237 234 243 245 244 232 202 184 201 216 220 230 230 218 220 229 234 236 239 247 252 246 243 246 238 186 195 198 215 246 235 220 210 198 194 188 184 191 196 199 203 206
220 210 226 251 216 189 222 254 239 205 182 179 186 184 175 170 185 182 58 55 209 313 271 195 238 258 210 226 234 223 219 224 218 199 188 173 155 159 163 187 198 254 262 240 214 273 264 245 240 242 242 236 222 219 232 224 217 223 229 226 225 225 230 240 238 232 237 250 264 262 245 133 183 228 263 271 259 259 230 210 212 207 195 193 194 196 200 204
205 214 213 215 200 210 232 236 223 206 187 186 182 181 185 140 128 182 179 336 239 304 277 232 262 254 229 231 229 219 224 240 229 199 197 200 190 206 295 288 292 266 242 229 224 248 266 255 243 253 260 260 275 283 273 252 226 220 221 229 234 228 227 242 245 235 239 254 258 257 251 218 238 265 288 283 254 255 263 242 224 213 203 195 192 196 199 202
205 223 220 205 196 214 221 209 215 215 184 189 193 193 206 162 124 165 176 276 247 220 242 268 276 253 236 235 237 229 224 235 226 203 209 220 216 235 277 293 289 282 270 260 244 242 260 255 240 252 259 254 268 271 252 249 243 228 218 222 230 231 227 236 243 241 249 255 251 261 272 257 254 265 275 272 251 238 257 256 235 214 201 190 181 188 199 204
221 237 234 209 189 204 215 200 207 210 189 196 199 197 218 219 192 184 77 60 234 228 240 264 258 245 253 240 239 245 242 237 223 202 207 222 218 227 250 256 274 299 298 268 259 254 261 256 242 245 252 243 244 243 235 241 242 237 235 229 225 231 232 234 240 241 244 250 257 285 296 274 275 272 258 251 236 219 228 242 244 226 210 199 189 184 202 214
221 242 234 209 201 227 221 190 194 206 196 194 191 195 215 211 200 221 235 31 332 238 233 254 215 197 248 232 228 242 247 238 226 203 200 220 231 232 244 251 258 284 289 262 262 266 261 256 245 246 256 246 232 230 231 233 229 228 239 239 231 237 238 236 241 243 245 250 255 267 270 264 271 271 257 231 215 222 233 244 253 237 220 216 211 198 200 215
207 217 205 198 215 238 216 195 203 203 192 194 197 193 199 203 192 191 202 275 323 260 217 218 190 170 104 174 191 198 205 232 262 176 186 224 249 234 238 249 251 265 279 272 276 286 271 258 242 244 253 243 228 233 233 230 231 227 226 231 240 244 238 234 242 249 252 257 255 251 254 248 245 254 249 231 232 247 255 255 250 231 220 223 221 208 201 208
207 208 197 195 215 218 204 203 211 212 210 214 209 196 196 211 204 174 206 254 281 160 185 196 186 192 195 154 162 164 161 191 340 88 193 238 276 233 237 262 261 267 275 274 278 287 282 267 242 238 249 240 228 241 243 235 241 234 219 220 249 255 241 229 241 258 255 267 269 250 245 247 238 231 238 248 247 251 257 255 240 224 221 222 223 219 210 205
212 210 205 205 217 219 214 212 214 219 218 202 186 184 192 203 198 208 241 265 231 211 201 188 205 216 219 182 177 183 190 206 239 264 234 246 270 263 259 269 274 278 280 278 278 275 273 274 259 244 252 247 233 237 246 250 247 235 195 124 215 282 292 239 236 333 266 263 286 254 241 255 249 234 248 280 278 243 244 252 239 231 228 220 213 215 220 215
Height
3143 3143 3143 3142 3142 3142 3142 3142 3142 3142 3142 3142 3142 3143 3143 3143 3143 3143 3143 3143 3144 3144 3145 3146 3146 3147 3147 3148 3148 3149 3149 3150 3151 3151 3151 3151 3151 3153 3154 3155 3157 3157 3158 3159 3159 3160 3160 3160 3161 3161 3161 3161 3161 3161 3161 3160 3159 3159 3158 3158 3158 3159 3161 3161 3161 3162 3162 3163 3164 3166 3167 3169 3170 3171 3172 3173 3175 3177 3178 3180 3182 3184 3185 3186 3187 3189 3191 3192
3143 3142 3142 3142 3142 3142 3141 3141 3141 3141 3141 3141 3141 3141 3142 3142 3142 3142 3142 3142 3143 3143 3144 3144 3145 3146 3147 3147 3148 3148 3148 3149 3150 3150 3150 3150 3151 3152 3153 3155 3156 3157 3158 3159 3159 3159 3160 3161 3161 3162 3162 3162 3162 3161 3161 3160 3159 3159 3159 3159 3158 3160 3162 3162 3162 3163 3163 3163 3164 3166 3167 3169 3171 3172 3173 3174 3175 3177 3179 3181 3183 3183 3184 3186 3188 3190 3192 3194
3143 3142 3142 3141 3141 3141 3141 3141 3140 3140 3140 3140 3140 3140 3141 3140 3141 3141 3141 3141 3141 3142 3142 3143 3144 3144 3146 3146 3147 3148 3148 3148 3148 3148 3149 3149 3150 3151 3153 3154 3155 3156 3157 3158 3159 3159 3160 3161 3162 3162 3163 3163 3162 3162 3161 3160 3159 3159 3160 3160 3159 3161 3162 3162 3163 3163 3163 3164 3164 3166 3167 3169 3171 3172 3173 3175 3176 3178 3180 3181 3182 3183 3184 3186 3188 3191 3193 3195
3142 3142 3141 3141 3141 3141 3141 3140 3140 3140 3140 3139 3139 3139 3139 3139 3139 3140 3140 3140 3140 3141 3141 3142 3142 3143 3144 3145 3146 3147 3147 3148 3146 3146 3148 3149 3149 3151 3152 3153 3154 3155 3156 3157 3158 3158 3159 3161 3162 3162 3163 3164 3162 3161 3161 3161 3160 3160 3161 3160 3159 3161 3162 3162 3163 3164 3164 3165 3166 3167 3168 3169 3171 3173 3174 3175 3177 3179 3181 3182 3182 3184 3185 3187 3189 3191 3194 3195
3142 3142 3141 3141 3140 3140 3140 3140 3140 3139 3139 3139 3138 3138 3138 3138 3138 3138 3139 3139 3139 3140 3140 3141 3141 3142 3143 3144 3145 3146 3147 3148 3144 3144 3147 3148 3149 3150 3151 3152 3153 3154 3155 3157 3157 3158 3159 3161 3162 3163 3163 3163 3163 3162 3161 3161 3161 3161 3161 3160 3159 3160 3162 3162 3163 3164 3164 3166 3167 3168 3169 3170 3171 3173 3175 3176 3178 3179 3182 3183 3183 3185 3186 3188 3190 3192 3194 3196
3142 3141 3141 3141 3140 3140 3139 3139 3139 3139 3139 3138 3138 3138 3137 3137 3137 3137 3137 3138 3138 3138 3139 3140 3140 3141 3142 3143 3144 3145 3147 3145 3141 3143 3146 3146 3148 3149 3150 3151 3152 3153 3154 3156 3157 3158 3159 3160 3162 3163 3163 3163 3162 3162 3162 3162 3162 3162 3160 3159 3159 3160 3162 3162 3163 3164 3165 3167 3167 3168 3170 3170 3172 3174 3175 3177 3179 3180 3183 3184 3184 3185 3187 3189 3191 3193 3195 3196
3141 3141 3141 3140 3140 3140 3139 3139 3138 3138 3138 3138 3137 3137 3137 3136 3136 3136 3136 3136 3137 3137 3138 3138 3139 3140 3141 3142 3143 3144 3145 3143 3140 3143 3145 3146 3147 3148 3149 3150 3151 3152 3153 3155 3156 3158 3159 3161 3162 3163 3164 3164 3163 3162 3162 3162 3162 3161 3160 3159 3159 3160 3161 3162 3163 3165 3166 3167 3168 3169 3171 3172 3173 3174 3176 3178 3179 3180 3183 3184 3184 3186 3188 3190 3192 3194 3196 3197
3141 3141 3140 3140 3140 3139 3139 3138 3138 3137 3136 3136 3136 3136 3136 3136 3135 3135 3135 3135 3135 3136 3136 3137 3138 3139 3140 3141 3142 3144 3144 3141 3140 3143 3144 3145 3146 3147 3148 3149 3150 3151 3152 3155 3156 3158 3159 3160 3162 3163 3164 3163 3163 3163 3163 3164 3162 3161 3160 3159 3160 3160 3161 3162 3163 3166 3167 3168 3168 3170 3171 3173 3174 3175 3177 3178 3179 3181 3183 3184 3185 3187 3189 3191 3192 3194 3196 3198
3141 3141 3140 3140 3139 3139 3138 3138 3137 3136 3135 3135 3135 3135 3135 3135 3134 3134 3134 3134 3134 3135 3135 3136 3137 3137 3139 3140 3141 3144 3142 3138 3140 3142 3143 3144 3145 3146 3148 3149 3150 3151 3152 3154 3156 3157 3159 3161 3163 3164 3163 3162 3162 3164 3165 3165 3163 3161 3160 3160 3160 3160 3161 3162 3164 3166 3167 3167 3169 3171 3172 3174 3175 3176 3177 3179 3180 3182 3183 3184 3186 3188 3190 3192 3194 3195 3197 3198
3141 3140 3140 3139 3139 3138 3137 3137 3136 3135 3135 3134 3133 3133 3133 3133 3133 3133 3134 3134 3134 3134 3134 3134 3135 3136 3138 3139 3141 3143 3139 3138 3140 3141 3142 3143 3144 3146 3147 3148 3150 3151 3152 3154 3155 3157 3159 3161 3163 3163 3163 3162 3162 3164 3164 3164 3163 3161 3160 3160 3160 3161 3161 3161 3163 3165 3166 3167 3170 3172 3173 3174 3176 3177 3178 3179 3181 3182 3184 3185 3187 3189 3191 3193 3194 3196 3197 3199
3141 3140 3139 3139 3138 3137 3136 3136 3135 3134 3134 3133 3133 3132 3132 3132 3132 3132 3133 3133 3133 3133 3133 3133 3134 3135 3137 3138 3140 3140 3137 3137 3139 3140 3141 3143 3144 3145 3146 3148 3149 3150 3151 3153 3155 3157 3158 3161 3163 3162 3162 3163 3163 3164 3164 3163 3162 3161 3161 3160 3160 3161 3160 3162 3165 3166 3168 3170 3171 3173 3175 3175 3176 3178 3178 3180 3182 3183 3184 3186 3187 3190 3192 3193 3195 3196 3198 3200
3140 3140 3139 3138 3137 3137 3136 3135 3134 3134 3133 3132 3132 3131 3131 3131 3131 3131 3131 3132 3132 3132 3132 3132 3133 3134 3135 3137 3138 3136 3136 3138 3138 3139 3141 3142 3143 3145 3145 3147 3149 3150 3151 3153 3155 3156 3158 3159 3160 3161 3161 3162 3164 3165 3163 3162 3162 3162 3162 3160 3159 3160 3161 3163 3167 3168 3169 3172 3173 3174 3176 3177 3177 3178 3179 3181 3182 3184 3185 3186 3188 3190 3192 3194 3195 3197 3198 3200
3140 3139 3139 3138 3137 3136 3135 3134 3134 3133 3132 3132 3131 3130 3130 3130 3130 3130 3130 3131 3131 3131 3131 3132 3132 3133 3135 3136 3135 3135 3137 3137 3138 3139 3140 3141 3143 3144 3145 3147 3148 3149 3151 3153 3155 3156 3156 3157 3158 3160 3161 3162 3165 3164 3162 3162 3163 3162 3162 3161 3161 3161 3162 3164 3166 3168 3170 3173 3174 3174 3176 3178 3178 3179 3180 3181 3183 3184 3186 3187 3189 3191 3192 3194 3195 3197 3199 3200
3139 3139 3138 3138 3137 3136 3135 3134 3133 3132 3131 3130 3130 3129 3129 3129 3129 3129 3129 3130 3130 3130 3131 3131 3132 3132 3134 3134 3134 3135 3136 3137 3138 3139 3140 3141 3142 3144 3145 3146 3147 3149 3150 3151 3154 3155 3154 3155 3157 3158 3159 3160 3162 3162 3162 3164 3163 3162 3162 3163 3163 3161 3161 3164 3165 3168 3171 3172 3174 3175 3177 3178 3177 3178 3180 3182 3183 3185 3186 3188 3190 3191 3192 3194 3195 3197 3199 3200
3139 3138 3138 3137 3136 3135 3134 3133 3132 3131 3130 3129 3128 3128 3128 3128 3128 3128 3128 3129 3129 3130 3130 3131 3131 3132 3134 3134 3134 3134 3135 3136 3137 3138 3139 3141 3142 3144 3145 3146 3148 3149 3150 3151 3152 3152 3152 3154 3156 3157 3159 3160 3161 3161 3163 3164 3162 3162 3163 3164 3163 3161 3161 3163 3165 3168 3170 3172 3174 3175 3176 3178 3178 3179 3180 3181 3183 3185 3187 3188 3191 3192 3193 3194 3196 3198 3199 3201
3139 3138 3137 3136 3135 3134 3133 3132 3131 3130 3129 3128 3127 3127 3127 3127 3127 3127 3128 3128 3129 3129 3130 3131 3131 3132 3134 3134 3133 3134 3135 3136 3137 3138 3140 3141 3142 3143 3145 3147 3148 3149 3150 3151 3151 3152 3153 3154 3156 3158 3160 3161 3161 3162 3163 3163 3161 3161 3163 3164 3164 3162 3162 3163 3164 3167 3169 3171 3173 3174 3175 3177 3179 3179 3180 3181 3183 3186 3187 3189 3191 3192 3193 3195 3196 3198 3200 3201
3138 3138 3137 3136 3135 3133 3132 3131 3130 3129 3128 3127 3127 3126 3126 3126 3126 3127 3127 3128 3129 3129 3130 3131 3131 3132 3133 3133 3133 3134 3135 3136 3136 3138 3139 3141 3142 3143 3145 3147 3148 3149 3150 3151 3152 3153 3154 3155 3156 3158 3159 3160 3161 3163 3162 3160 3160 3161 3162 3163 3164 3163 3163 3164 3164 3166 3168 3170 3172 3174 3175 3177 3178 3179 3179 3181 3182 3185 3187 3189 3191 3193 3194 3195 3197 3198 3200 3201
3138 3137 3136 3135 3134 3133 3131 3130 3129 3128 3127 3127 3126 3126 3126 3126 3127 3127 3127 3128 3129 3130 3131 3131 3132 3134 3134 3133 3134 3135 3135 3135 3136 3138 3139 3140 3142 3143 3145 3146 3148 3149 3150 3151 3152 3153 3155 3156 3157 3159 3159 3159 3160 3161 3160 3158 3159 3161 3162 3164 3165 3164 3164 3164 3164 3165 3167 3169 3171 3173 3174 3176 3178 3178 3179 3180 3182 3184 3186 3188 3191 3192 3194 3195 3197 3199 3200 3201
3138 3137 3136 3135 3133 3132 3131 3130 3128 3127 3127 3126 3127 3127 3127 3127 3127 3128 3128 3128 3129 3130 3132 3132 3132 3134 3134 3133 3134 3134 3134 3135 3136 3138 3139 3140 3142 3143 3145 3146 3148 3150 3151 3152 3153 3154 3155 3156 3158 3158 3157 3158 3159 3160 3160 3159 3160 3161 3161 3164 3166 3164 3164 3164 3164 3165 3167 3169 3171 3172 3173 3175 3176 3177 3178 3180 3181 3183 3186 3188 3190 3192 3194 3195 3197 3199 3200 3201
3138 3137 3135 3134 3133 3132 3131 3129 3128 3127 3127 3127 3127 3127 3128 3129 3129 3129 3128 3129 3129 3130 3131 3132 3132 3133 3134 3134 3134 3133 3134 3135 3137 3138 3139 3140 3142 3144 3145 3147 3149 3150 3152 3154 3154 3154 3155 3156 3156 3156 3156 3157 3158 3159 3159 3160 3161 3161 3161 3164 3165 3164 3164 3165 3165 3166 3167 3169 3170 3171 3173 3174 3175 3176 3177 3179 3180 3182 3184 3186 3188 3191 3193 3194 3197 3199 3199 3201
3137 3136 3135 3134 3133 3132 3130 3129 3128 3127 3127 3127 3127 3127 3129 3130 3130 3130 3129 3130 3130 3130 3131 3131 3131 3133 3134 3134 3134 3134 3135 3136 3138 3138 3139 3141 3142 3144 3146 3147 3150 3151 3152 3154 3155 3155 3155 3155 3154 3155 3156 3158 3159 3159 3159 3160 3162 3162 3162 3163 3166 3166 3165 3165 3166 3167 3167 3168 3170 3171 3172 3173 3174 3176 3177 3178 3179 3181 3183 3185 3187 3189 3192 3194 3197 3198 3199 3201
3137 3136 3135 3133 3133 3132 3131 3130 3129 3128 3127 3127 3127 3127 3130 3130 3129 3129 3129 3131 3132 3130 3130 3130 3131 3132 3132 3133 3134 3134 3136 3138 3139 3139 3139 3141 3143 3146 3147 3148 3151 3152 3153 3154 3155 3155 3154 3153 3154 3155 3157 3157 3158 3159 3159 3161 3162 3162 3162 3163 3167 3167 3167 3166 3166 3167 3167 3168 3169 3171 3172 3174 3175 3175 3176 3178 3179 3181 3183 3184 3186 3189 3190 3193 3196 3198 3198 3200
3137 3136 3135 3134 3133 3132 3131 3130 3130 3129 3128 3128 3128 3128 3131 3130 3129 3130 3129 3132 3134 3131 3131 3131 3132 3134 3133 3133 3134 3134 3138 3140 3140 3139 3139 3141 3144 3146 3147 3148 3151 3152 3153 3153 3153 3153 3153 3152 3154 3156 3156 3157 3158 3159 3160 3161 3161 3161 3162 3164 3167 3167 3167 3165 3165 3167 3167 3168 3169 3170 3172 3173 3174 3176 3176 3178 3179 3180 3182 3184 3186 3188 3190 3192 3195 3197 3198 3199
3137 3136 3135 3134 3134 3133 3132 3131 3131 3130 3130 3130 3129 3129 3130 3130 3129 3130 3129 3132 3134 3132 3132 3132 3133 3135 3135 3134 3134 3134 3139 3140 3140 3140 3139 3141 3145 3146 3147 3149 3151 3152 3152 3152 3153 3153 3152 3153 3154 3155 3156 3156 3158 3159 3160 3160 3160 3160 3161 3163 3165 3165 3166 3166 3165 3166 3168 3168 3168 3170 3171 3172 3173 3175 3177 3179 3179 3179 3181 3183 3185 3188 3189 3192 3194 3196 3197 3199
3137 3136 3135 3135 3134 3134 3133 3133 3132 3132 3131 3131 3131 3130 3131 3130 3130 3130 3128 3132 3134 3133 3132 3132 3133 3135 3134 3134 3134 3135 3139 3141 3141 3141 3140 3142 3145 3146 3147 3149 3150 3151 3151 3152 3153 3153 3152 3152 3153 3154 3155 3156 3157 3158 3159 3159 3159 3159 3159 3161 3164 3164 3165 3166 3165 3166 3168 3168 3168 3170 3171 3171 3172 3174 3175 3177 3178 3178 3180 3182 3184 3187 3189 3191 3193 3195 3197 3198
3137 3136 3136 3136 3135 3135 3134 3134 3133 3133 3133 3133 3133 3133 3132 3131 3131 3130 3129 3131 3133 3134 3133 3134 3135 3135 3134 3135 3135 3137 3140 3141 3141 3141 3140 3142 3145 3146 3148 3149 3148 3149 3151 3152 3153 3152 3151 3151 3152 3153 3154 3156 3157 3157 3158 3159 3159 3158 3157 3159 3163 3164 3164 3165 3166 3166 3168 3169 3169 3170 3170 3170 3171 3172 3173 3175 3177 3178 3179 3181 3183 3185 3187 3189 3192 3194 3196 3198
3137 3137 3137 3136 3136 3136 3135 3135 3134 3134 3135 3135 3135 3134 3133 3133 3132 3132 3131 3129 3131 3134 3135 3135 3135 3134 3135 3136 3137 3139 3140 3140 3140 3141 3141 3142 3143 3145 3146 3148 3148 3148 3150 3152 3151 3150 3150 3150 3152 3153 3155 3156 3156 3156 3157 3159 3159 3158 3158 3159 3162 3163 3162 3164 3164 3165 3167 3168 3168 3169 3169 3169 3170 3170 3172 3173 3175 3177 3178 3180 3182 3184 3186 3188 3190 3193 3196 3197
3138 3137 3137 3137 3137 3137 3136 3136 3135 3135 3136 3137 3135 3134 3134 3134 3132 3133 3132 3129 3131 3135 3135 3135 3135 3134 3136 3136 3137 3140 3140 3140 3140 3140 3141 3142 3143 3145 3146 3147 3148 3148 3149 3150 3149 3149 3149 3150 3152 3154 3155 3155 3155 3155 3157 3158 3158 3158 3159 3160 3161 3161 3161 3162 3162 3163 3165 3165 3165 3167 3168 3169 3169 3169 3171 3172 3173 3175 3176 3178 3181 3183 3185 3187 3189 3192 3195 3197
3138 3138 3138 3138 3138 3137 3137 3136 3136 3135 3136 3136 3135 3135 3135 3134 3134 3135 3133 3130 3132 3135 3135 3135 3135 3135 3137 3137 3138 3140 3140 3140 3140 3140 3142 3142 3142 3144 3145 3146 3148 3148 3149 3149 3148 3148 3149 3151 3152 3153 3154 3154 3154 3155 3156 3158 3158 3158 3160 3160 3160 3161 3161 3161 3161 3162 3164 3163 3162 3163 3165 3168 3169 3169 3170 3171 3172 3173 3175 3177 3180 3182 3184 3186 3189 3191 3194 3196
3138 3138 3138 3139 3138 3138 3138 3137 3137 3136 3136 3136 3136 3136 3135 3134 3136 3134 3130 3130 3133 3134 3136 3136 3135 3136 3137 3137 3138 3139 3140 3141 3141 3140 3142 3143 3143 3143 3143 3145 3147 3148 3149 3149 3147 3147 3149 3149 3151 3152 3153 3154 3154 3154 3155 3156 3158 3159 3160 3160 3160 3160 3160 3161 3161 3163 3164 3161 3159 3160 3162 3166 3169 3169 3168 3168 3169 3170 3172 3175 3177 3180 3182 3185 3188 3190 3193 3195
3138 3139 3139 3139 3139 3139 3139 3138 3138 3137 3137 3137 3137 3136 3136 3135 3136 3132 3129 3132 3135 3134 3135 3136 3136 3137 3137 3137 3138 3139 3140 3140 3141 3141 3142 3143 3144 3144 3145 3146 3146 3147 3149 3149 3147 3147 3149 3149 3150 3151 3152 3153 3154 3153 3154 3155 3157 3159 3160 3159 3159 3159 3160 3161 3161 3163 3162 3158 3158 3158 3160 3164 3166 3165 3165 3165 3167 3168 3169 3171 3174 3177 3180 3183 3186 3189 3192 3194
3138 3139 3139 3139 3139 3139 3139 3139 3139 3139 3138 3138 3138 3137 3137 3136 3133 3131 3132 3134 3134 3134 3135 3135 3136 3137 3137 3137 3137 3138 3139 3140 3140 3141 3142 3143 3143 3144 3145 3145 3145 3146 3146 3146 3146 3147 3148 3149 3149 3150 3151 3152 3153 3153 3153 3155 3157 3158 3159 3159 3158 3158 3160 3161 3160 3160 3158 3155 3156 3157 3158 3162 3163 3161 3161 3163 3165 3167 3168 3170 3173 3175 3177 3180 3184 3188 3191 3193
3138 3139 3139 3140 3140 3140 3140 3139 3140 3139 3139 3139 3138 3137 3137 3135 3132 3132 3133 3133 3133 3134 3135 3135 3137 3137 3137 3137 3137 3137 3138 3139 3140 3141 3141 3142 3143 3143 3143 3144 3144 3144 3143 3143 3144 3145 3146 3147 3148 3149 3149 3150 3152 3153 3152 3153 3155 3156 3157 3157 3156 3156 3159 3160 3158 3157 3155 3154 3156 3156 3157 3159 3159 3159 3161 3161 3163 3164 3167 3169 3172 3174 3177 3179 3182 3186 3190 3191
3138 3139 3139 3140 3140 3140 3140 3140 3140 3140 3140 3139 3138 3138 3137 3133 3131 3133 3133 3133 3134 3135 3135 3136 3137 3137 3137 3136 3136 3137 3138 3138 3139 3140 3141 3142 3142 3142 3142 3143 3144 3143 3143 3142 3141 3141 3142 3142 3142 3145 3147 3147 3150 3151 3151 3152 3153 3153 3155 3155 3155 3154 3156 3157 3156 3156 3155 3154 3155 3157 3157 3155 3155 3158 3160 3161 3162 3163 3165 3168 3171 3174 3176 3178 3180 3184 3188 3190
3138 3138 3139 3140 3140 3140 3140 3140 3140 3141 3140 3139 3139 3138 3137 3134 3132 3133 3134 3135 3136 3135 3136 3137 3137 3137 3136 3136 3136 3138 3138 3137 3139 3140 3140 3141 3141 3141 3143 3143 3144 3144 3143 3141 3139 3139 3140 3137 3137 3141 3145 3146 3148 3150 3151 3152 3151 3151 3154 3154 3152 3153 3154 3154 3154 3155 3156 3156 3157 3158 3157 3155 3157 3159 3160 3162 3163 3163 3165 3166 3169 3172 3174 3177 3179 3182 3186 3188
3138 3138 3139 3140 3140 3140 3141 3141 3141 3141 3140 3140 3139 3138 3137 3136 3136 3136 3136 3136 3136 3136 3136 3136 3136 3135 3134 3135 3137 3138 3136 3136 3138 3139 3139 3139 3140 3141 3142 3143 3144 3144 3143 3142 3142 3141 3140 3137 3137 3142 3145 3145 3147 3149 3150 3151 3150 3149 3151 3151 3151 3153 3155 3154 3154 3154 3155 3155 3155 3158 3157 3156 3158 3160 3160 3162 3163 3165 3166 3167 3168 3171 3172 3175 3178 3181 3184 3186
3138 3139 3139 3140 3140 3141 3141 3141 3141 3141 3141 3140 3140 3138 3138 3138 3138 3138 3138 3137 3137 3137 3136 3135 3135 3134 3134 3134 3136 3137 3137 3136 3136 3137 3138 3138 3139 3141 3143 3143 3145 3145 3144 3144 3143 3141 3140 3138 3138 3142 3145 3145 3147 3148 3149 3150 3149 3148 3149 3149 3151 3154 3154 3155 3155 3154 3153 3151 3151 3154 3154 3154 3157 3159 3159 3162 3163 3165 3167 3167 3168 3169 3171 3173 3175 3178 3181 3183
3137 3139 3140 3140 3140 3141 3141 3141 3141 3141 3141 3141 3141 3140 3139 3139 3139 3139 3139 3138 3138 3137 3136 3134 3134 3134 3134 3133 3134 3136 3137 3137 3136 3137 3138 3139 3141 3143 3144 3144 3145 3146 3146 3145 3144 3143 3141 3138 3138 3142 3143 3144 3146 3147 3147 3149 3148 3147 3147 3148 3150 3150 3150 3154 3155 3153 3151 3149 3148 3150 3151 3151 3154 3156 3157 3161 3162 3163 3165 3167 3167 3168 3170 3172 3174 3177 3179 3181
3137 3139 3141 3140 3140 3141 3141 3141 3141 3141 3141 3141 3141 3140 3140 3139 3139 3140 3139 3139 3139 3138 3136 3134 3134 3134 3134 3134 3134 3135 3136 3137 3137 3137 3138 3139 3141 3143 3144 3144 3144 3145 3146 3145 3144 3143 3143 3139 3137 3140 3141 3142 3144 3145 3144 3145 3147 3148 3148 3148 3148 3148 3148 3150 3151 3151 3151 3148 3148 3150 3150 3149 3152 3154 3155 3158 3160 3161 3163 3165 3166 3166 3168 3171 3173 3176 3178 3179
3138 3140 3141 3139 3140 3141 3141 3141 3141 3141 3141 3141 3140 3139 3140 3140 3140 3140 3139 3139 3139 3138 3137 3136 3135 3135 3135 3135 3135 3135 3136 3138 3137 3137 3140 3140 3140 3142 3144 3144 3144 3145 3146 3145 3145 3145 3144 3141 3138 3139 3141 3142 3142 3142 3142 3143 3145 3147 3148 3148 3148 3147 3148 3149 3149 3150 3150 3148 3148 3151 3149 3149 3154 3155 3155 3157 3158 3159 3161 3163 3164 3166 3167 3170 3172 3175 3176 3178
3139 3141 3141 3139 3140 3141 3141 3141 3141 3141 3141 3140 3140 3140 3140 3140 3140 3140 3140 3139 3139 3138 3138 3137 3136 3136 3136 3136 3136 3136 3137 3138 3137 3138 3141 3141 3141 3142 3144 3145 3145 3145 3146 3145 3145 3145 3144 3141 3139 3138 3139 3140 3139 3140 3141 3142 3143 3144 3146 3147 3147 3146 3147 3147 3146 3146 3148 3148 3148 3149 3148 3149 3154 3155 3155 3157 3157 3157 3160 3161 3163 3165 3167 3168 3171 3172 3174 3177
3139 3141 3140 3138 3139 3140 3141 3141 3141 3141 3140 3139 3139 3140 3139 3140 3140 3140 3140 3140 3139 3139 3139 3138 3138 3137 3137 3137 3138 3137 3137 3137 3138 3139 3140 3140 3142 3143 3144 3145 3145 3145 3145 3144 3144 3144 3143 3141 3139 3137 3136 3136 3136 3138 3140 3141 3142 3143 3144 3145 3146 3145 3145 3145 3144 3144 3146 3146 3147 3148 3147 3148 3152 3154 3155 3156 3156 3156 3158 3160 3162 3164 3166 3167 3169 3171 3173 3175
3139 3141 3139 3138 3139 3140 3140 3141 3141 3140 3139 3139 3140 3140 3140 3140 3141 3140 3140 3140 3139 3140 3140 3139 3139 3139 3139 3139 3139 3138 3138 3138 3139 3139 3140 3141 3143 3144 3145 3145 3145 3145 3145 3144 3143 3143 3143 3143 3141 3138 3136 3136 3136 3137 3140 3141 3143 3142 3141 3143 3144 3144 3144 3145 3144 3145 3144 3144 3145 3147 3146 3147 3151 3154 3154 3154 3155 3155 3157 3158 3160 3162 3164 3166 3168 3169 3171 3173
3140 3141 3139 3137 3138 3139 3140 3141 3140 3139 3139 3140 3140 3140 3140 3140 3140 3140 3140 3140 3140 3140 3141 3140 3140 3140 3140 3140 3140 3139 3140 3140 3141 3141 3141 3142 3144 3144 3145 3145 3145 3146 3145 3143 3143 3144 3144 3144 3143 3140 3138 3137 3135 3136 3139 3141 3142 3142 3140 3141 3143 3143 3144 3144 3145 3146 3144 3143 3144 3144 3144 3148 3152 3152 3153 3153 3154 3154 3156 3158 3158 3159 3161 3164 3166 3168 3169 3171
3139 3140 3139 3138 3137 3138 3140 3140 3140 3139 3139 3140 3140 3140 3140 3139 3140 3140 3141 3141 3141 3141 3141 3141 3141 3141 3141 3141 3141 3141 3141 3141 3142 3142 3143 3144 3144 3145 3145 3145 3145 3146 3145 3144 3144 3145 3145 3145 3144 3142 3138 3137 3136 3136 3138 3139 3140 3141 3140 3141 3141 3142 3143 3143 3142 3143 3142 3143 3145 3144 3144 3148 3151 3152 3152 3153 3153 3154 3155 3157 3158 3158 3160 3162 3164 3166 3167 3169
3138 3140 3139 3139 3138 3139 3139 3139 3139 3139 3139 3140 3140 3140 3140 3140 3139 3139 3140 3141 3141 3141 3141 3141 3141 3142 3142 3141 3141 3141 3142 3142 3142 3143 3144 3144 3145 3145 3145 3145 3145 3145 3145 3145 3145 3146 3146 3145 3144 3143 3140 3139 3140 3140 3140 3140 3140 3140 3140 3140 3140 3140 3142 3144 3141 3140 3141 3144 3145 3145 3146 3149 3151 3152 3152 3153 3154 3154 3154 3155 3156 3157 3158 3160 3162 3164 3165 3168
3137 3138 3138 3138 3138 3138 3138 3138 3139 3139 3139 3140 3140 3140 3140 3140 3140 3140 3139 3140 3141 3141 3141 3141 3141 3142 3142 3142 3142 3141 3142 3142 3142 3143 3144 3144 3145 3145 3145 3145 3146 3145 3144 3145 3145 3146 3146 3145 3144 3144 3142 3142 3143 3143 3142 3141 3139 3138 3138 3139 3139 3140 3143 3145 3142 3141 3144 3145 3144 3145 3147 3149 3151 3152 3153 3153 3154 3155 3154 3154 3154 3155 3156 3158 3160 3162 3164 3166
3137 3138 3137 3137 3137 3138 3138 3138 3139 3139 3139 3139 3139 3140 3140 3140 3140 3140 3139 3140 3141 3141 3141 3141 3142 3142 3142 3142 3142 3142 3142 3142 3142 3143 3144 3145 3145 3145 3145 3145 3146 3145 3145 3145 3146 3146 3146 3144 3144 3143 3143 3143 3143 3142 3142 3142 3140 3139 3138 3139 3141 3142 3144 3144 3144 3145 3146 3146 3145 3147 3149 3151 3152 3152 3152 3153 3155 3155 3154 3153 3153 3154 3155 3157 3158 3160 3163 3165
3136 3137 3137 3136 3137 3138 3137 3138 3138 3138 3139 3139 3139 3139 3140 3140 3140 3140 3140 3140 3141 3141 3141 3142 3142 3142 3142 3142 3142 3143 3142 3142 3142 3143 3144 3145 3145 3145 3146 3145 3145 3145 3145 3146 3146 3146 3145 3144 3144 3144 3143 3142 3142 3142 3142 3142 3141 3142 3142 3142 3143 3144 3144 3145 3145 3146 3146 3146 3147 3149 3150 3152 3152 3151 3151 3153 3154 3154 3153 3152 3152 3152 3154 3155 3157 3158 3160 3163
3134 3135 3135 3136 3137 3137 3137 3138 3138 3138 3138 3138 3139 3139 3140 3140 3140 3140 3140 3140 3141 3141 3141 3141 3142 3142 3142 3143 3143 3143 3143 3143 3143 3143 3144 3145 3145 3145 3145 3145 3145 3146 3145 3146 3146 3145 3145 3145 3145 3145 3144 3142 3142 3142 3142 3141 3141 3142 3142 3144 3145 3145 3145 3146 3147 3146 3147 3147 3148 3149 3150 3150 3149 3149 3151 3152 3152 3152 3151 3151 3151 3151 3152 3154 3156 3157 3158 3161
3132 3133 3134 3135 3136 3136 3137 3137 3138 3138 3138 3138 3138 3139 3140 3140 3140 3140 3140 3140 3140 3141 3141 3141 3142 3142 3142 3143 3143 3143 3144 3144 3144 3144 3144 3145 3144 3144 3145 3145 3145 3146 3145 3146 3146 3145 3145 3145 3144 3145 3143 3142 3142 3142 3141 3142 3141 3141 3142 3144 3146 3146 3146 3146 3147 3146 3147 3147 3148 3149 3149 3148 3147 3149 3151 3151 3151 3151 3150 3149 3150 3151 3152 3153 3155 3156 3158 3159
3132 3133 3134 3135 3136 3136 3136 3137 3137 3137 3137 3138 3138 3139 3139 3140 3139 3139 3140 3139 3140 3140 3140 3141 3141 3142 3143 3143 3143 3142 3143 3143 3143 3143 3144 3144 3144 3145 3145 3145 3145 3145 3145 3146 3146 3145 3145 3144 3144 3144 3143 3141 3142 3142 3142 3143 3141 3140 3143 3145 3146 3147 3147 3146 3146 3147 3147 3148 3148 3149 3149 3148 3148 3150 3151 3151 3152 3151 3150 3149 3149 3150 3151 3152 3154 3156 3157 3158